Flag for Brazil Weather past 2 weeks in Cuiabá, Mato Grosso, Brazil

Now
70 °F

Clear.


Feels Like: 70 °F
Forecast: 64 / 96 °F
Wind: 7 mph from Southwest

Location: Cuiaba Aeroporto

Current Time: Aug 28, 2014 at 3:20:16 AM

Latest Report: Aug 28, 2014 at 3:00 AM


Visibility: 10 mi

Pressure: 29.92 "Hg

Humidity: 64%

Dew point: 57 °F

Location of CuiabáLocation

Historic Weather in Cuiabá — Graph

°F

Cuiabá temperature yesterday

Maximum temperature yesterday: 84 °F (at 2:00 PM)
Minimum temperature yesterday: 63 °F (at 5:00 AM)
Average temperature yesterday: 73 °F

Past Weeks' High & Low Weather Summary

 TemperatureHumidityPressure
High102 °F (Aug 22, 2:00 PM)100% (Aug 15, 5:00 AM)30.18 "Hg (Aug 15, 5:00 AM)
Low61 °F (Aug 14, 8:00 AM)16% (Aug 22, 2:00 PM)29.74 "Hg (Aug 24, 3:00 PM)
Average81 °F52%29.97 "Hg
* Reported Aug 13 2:00 AM — Aug 28 2:00 AM, Cuiabá, Weather by CustomWeather, © 2014

Note: Actual official high and low records may vary slightly from our data, if they occured in-between our weather recording intervals... More about our weather records

Advertising

Cuiabá weather history for previous 24 hours

 ConditionsComfort  
Time TempWeatherWind HumidityBarometerVisibility
2:00 AM
Aug 28
68 °FClear.6 mph73%29.92 "Hg10 mi
1:00 AM70 °FClear.3 mph69%29.95 "Hg10 mi
12:00 AM72 °FClear.3 mph65%29.95 "Hg10 mi
11:00 PM
Aug 27
73 °FClear.3 mph61%29.95 "Hg10 mi
10:00 PM75 °FClear.7 mph54%29.98 "Hg10 mi
9:00 PM77 °FClear.5 mph51%29.95 "Hg10 mi
8:00 PM77 °FClear.3 mph54%29.95 "Hg10 mi
7:00 PM77 °FClear.7 mph54%29.92 "Hg10 mi
6:00 PM79 °FClear.5 mph48%29.92 "Hg10 mi
5:00 PM82 °FSunny.9 mph42%29.92 "Hg10 mi
4:00 PM84 °FSunny.10 mph37%29.89 "Hg10 mi
3:00 PM84 °FSunny.10 mph37%29.89 "Hg10 mi
2:00 PM84 °FSunny.9 mph35%29.92 "Hg10 mi
1:00 PM79 °FSunny.8 mph39%30.01 "Hg10 mi
12:00 PM79 °FSunny.8 mph39%30.01 "Hg10 mi
11:00 AM77 °FSunny.5 mph42%30.04 "Hg10 mi
10:00 AM73 °FSunny.8 mph47%30.07 "Hg10 mi
9:00 AM70 °FSunny.7 mph50%30.07 "Hg10 mi
8:00 AM66 °FSunny.8 mph60%30.09 "Hg10 mi
7:00 AM64 °FSunny.9 mph60%30.07 "Hg10 mi
6:00 AM63 °FSunny.3 mph68%30.04 "Hg10 mi
5:00 AM63 °FClear.6 mph68%30.04 "Hg10 mi
4:00 AM64 °FClear.9 mph64%30.01 "Hg10 mi
3:00 AM66 °FClear.7 mph68%30.01 "Hg10 mi
Weather by CustomWeather, © 2014

See weather overviewHow to use our weather pages